Buena Park, CA

1:57 AM PDT on August 28, 2016 (GMT -0700)
Fullerton Municipal

Weather History for KFUL - November, 2014

Change the Weather History Date:

Wednesday, November 12, 2014

  Actual Average Record
Temperature  
Mean Temperature 66 °F 62 °F  
Max Temperature 70 °F 73 °F 84 °F (2002)
Min Temperature 61 °F 51 °F 42 °F (2000)
Degree Days  
Heating Degree Days 0 4  
Month to date heating degree days 8 34  
Since 1 July heating degree days 8 58  
Cooling Degree Days 1 1  
Month to date cooling degree days 41 14  
Year to date cooling degree days 2089 1245  
Growing Degree Days 14 (Base 50)    
Moisture  
Dew Point 52 °F    
Average Humidity 65    
Maximum Humidity 78    
Minimum Humidity 51    
Precipitation  
Precipitation 0.00 in 0.03 in 0.40 in (2001)
Month to date precipitation 0.25 0.50  
Year to date precipitation 4.00 11.23  
Since 1 July precipitation 0.54  
Snow  
Snow 0.00 in - - ()
Month to date snowfall 0.0  
Year to date snowfall 0.0  
Snow Depth 0.00 in    
Sea Level Pressure  
Sea Level Pressure 29.97 in    
Wind  
Wind Speed 3 mph (WSW)    
Max Wind Speed 10 mph    
Max Gust Speed 13 mph    
Visibility 10 miles    
Events      
T = Trace of Precipitation, MM = Missing Value Source: NWS Daily Summary

Daily Weather History Graph

Daily Weather History Graph

Search for Another Location

Airport or City:

Trip Planner

Search our weather history database for the weather conditions in past years. The results will help you decide how hot, cold, wet, or windy it might be!

Date:

Astronomy

Nov. 12, 2014 Rise Set
Actual Time 6:21 AM PST 4:50 PM PST
Civil Twilight 5:55 AM PST 5:16 PM PST
Nautical Twilight 5:25 AM PST 5:46 PM PST
Astronomical Twilight 4:55 AM PST 6:16 PM PST
Moon 10:12 PM PST (11/12) 11:11 AM PST (11/12)
Length of Visible Light 11h 21m
Length of Day
10h 28m
Waning Gibbous, 67% of the Moon is Illuminated
Nov 12
Waning Gibbous
Nov 14
Last Quarter
Nov 22
New
Nov 29
First Quarter
Dec 6
Full

Hourly Weather History & Observations

Time (PST) Temp. Dew Point Humidity Pressure Visibility Wind Dir Wind Speed Gust Speed Precip Events Conditions
12:53 AM 63.0 °F 53.1 °F 70% 29.95 in 10.0 mi West 3.5 mph - N/A   Overcast
1:53 AM 63.0 °F 53.1 °F 70% 29.94 in 10.0 mi Calm Calm - N/A   Overcast
2:53 AM 62.1 °F 54.0 °F 75% 29.95 in 10.0 mi Calm Calm - N/A   Overcast
3:53 AM 62.1 °F 54.0 °F 75% 29.95 in 10.0 mi Calm Calm - N/A   Overcast
4:53 AM 61.0 °F 54.0 °F 78% 29.96 in 10.0 mi Calm Calm - N/A   Overcast
5:53 AM 62.1 °F 55.0 °F 78% 29.97 in 10.0 mi Calm Calm - N/A   Overcast
6:53 AM 61.0 °F 54.0 °F 78% 29.98 in 10.0 mi Calm Calm - N/A   Overcast
7:53 AM 66.0 °F 54.0 °F 65% 29.99 in 10.0 mi Calm Calm - N/A   Mostly Cloudy
8:53 AM 66.0 °F 53.1 °F 63% 29.99 in 10.0 mi NW 4.6 mph - N/A   Overcast
9:53 AM 66.9 °F 52.0 °F 59% 30.00 in 10.0 mi Calm Calm - N/A   Overcast
10:53 AM 69.1 °F 51.1 °F 53% 29.98 in 10.0 mi SW 8.1 mph - N/A   Overcast
11:53 AM 69.1 °F 51.1 °F 53% 29.95 in 10.0 mi Variable 4.6 mph - N/A   Overcast
12:53 PM 70.0 °F 50.0 °F 49% 29.94 in 10.0 mi SSW 5.8 mph - N/A   Overcast
1:53 PM 69.1 °F 52.0 °F 54% 29.93 in 10.0 mi SW 6.9 mph - N/A   Mostly Cloudy
2:53 PM 69.1 °F 50.0 °F 51% 29.94 in 10.0 mi SW 6.9 mph - N/A   Overcast
3:53 PM 68.0 °F 50.0 °F 52% 29.94 in 10.0 mi SW 6.9 mph - N/A   Overcast
4:53 PM 66.0 °F 52.0 °F 60% 29.95 in 10.0 mi West 6.9 mph - N/A   Mostly Cloudy
5:53 PM 64.0 °F 51.1 °F 63% 29.97 in 10.0 mi West 3.5 mph - N/A   Mostly Cloudy
6:53 PM 63.0 °F 51.1 °F 65% 29.99 in 10.0 mi West 3.5 mph - N/A   Clear
7:53 PM 62.1 °F 52.0 °F 70% 30.00 in 10.0 mi Calm Calm - N/A   Clear
8:53 PM 60.1 °F 52.0 °F 75% 30.01 in 10.0 mi Calm Calm - N/A   Clear
9:53 PM 59.0 °F 51.1 °F 75% 30.01 in 9.0 mi Calm Calm - N/A   Clear
10:53 PM 57.0 °F 51.1 °F 81% 30.02 in 10.0 mi Calm Calm - N/A   Clear
11:53 PM 57.0 °F 50.0 °F 77% 30.02 in 10.0 mi Calm Calm - N/A   Clear